When you browse on this site, cookies collect data to enhance your experience and personalize the content and advertising you see.
Visit our Privacy Policy to learn more. By continuing to use the site, you agree to this use of cookies and data.
  • In Italy
  • List of Countries
  • For 7 days
  • Water Temperature
  • Satellite Maps
  • Weather Map
  • Weather Widgets
  • user-avatar
    Login

    Hourly Weather Liege

    Today, 17 February, Sunday

    Time Temperature Precipitation Wind Pressure Humidity
    00:00 +6°C° 0 mm 2 mps 759 mmHg 81%
    01:00 +6°C° 0 mm 2 mps 758 mmHg 81%
    02:00 +6°C° 0 mm 2 mps 758 mmHg 82%
    03:00 +6°C° 0 mm 2 mps 758 mmHg 82%
    04:00 +6°C° 0 mm 2 mps 758 mmHg 82%
    05:00 +5°C° 0 mm 3 mps 758 mmHg 83%
    06:00 +5°C° 0 mm 3 mps 757 mmHg 83%
    07:00 +7°C° 0 mm 3 mps 757 mmHg 77%
    08:00 +7°C° 0 mm 4 mps 757 mmHg 71%
    09:00 +8°C° 0 mm 4 mps 757 mmHg 65%
    10:00 +11°C° 0 mm 4 mps 757 mmHg 61%
    11:00 +12°C° 0 mm 4 mps 757 mmHg 57%
    12:00 +14°C° 0 mm 5 mps 756 mmHg 53%
    13:00 +14°C° 0 mm 4 mps 756 mmHg 54%
    14:00 +14°C° 0 mm 4 mps 756 mmHg 55%
    15:00 +14°C° 0 mm 4 mps 755 mmHg 55%
    16:00 +12°C° 0 mm 4 mps 755 mmHg 59%
    17:00 +10°C° 0 mm 4 mps 755 mmHg 63%
    18:00 +8°C° 0 mm 4 mps 755 mmHg 67%
    19:00 +7°C° 0 mm 4 mps 756 mmHg 68%
    20:00 +8°C° 0 mm 3 mps 756 mmHg 70%
    21:00 +7°C° 0 mm 3 mps 756 mmHg 71%
    22:00 +7°C° 0 mm 3 mps 756 mmHg 73%
    23:00 +7°C° 0 mm 3 mps 756 mmHg 74%

    Tomorrow, 18 February, Monday

    Time Temperature Precipitation Wind Pressure Humidity
    00:00 +5°C° 0 mm 3 mps 756 mmHg 75%
    01:00 +5°C° 0 mm 3 mps 756 mmHg 75%
    02:00 +5°C° 0 mm 3 mps 755 mmHg 76%
    03:00 +5°C° 0 mm 3 mps 755 mmHg 76%
    04:00 +4°C° 0 mm 3 mps 755 mmHg 76%
    05:00 +4°C° 0 mm 3 mps 755 mmHg 76%
    06:00 +4°C° 0 mm 3 mps 755 mmHg 76%
    07:00 +5°C° 0 mm 3 mps 755 mmHg 73%
    08:00 +6°C° 0 mm 4 mps 755 mmHg 69%
    09:00 +7°C° 0 mm 4 mps 755 mmHg 66%
    10:00 +10°C° 0 mm 4 mps 755 mmHg 64%
    11:00 +11°C° 0 mm 4 mps 754 mmHg 62%
    12:00 +12°C° 0 mm 4 mps 754 mmHg 60%
    13:00 +12°C° 0 mm 4 mps 754 mmHg 61%
    14:00 +12°C° 0 mm 4 mps 753 mmHg 62%
    15:00 +12°C° 0 mm 4 mps 753 mmHg 64%
    16:00 +11°C° 0 mm 4 mps 753 mmHg 69%
    17:00 +10°C° 0 mm 4 mps 753 mmHg 74%
    18:00 +7°C° 0 mm 4 mps 753 mmHg 79%
    19:00 +7°C° 0 mm 4 mps 753 mmHg 79%
    20:00 +7°C° 0 mm 3 mps 754 mmHg 80%
    21:00 +7°C° 0 mm 3 mps 754 mmHg 81%
    22:00 +7°C° 0 mm 3 mps 754 mmHg 82%
    23:00 +7°C° 0 mm 3 mps 754 mmHg 83%

    Day after tomorrow, 19 February, Tuesday

    Time Temperature Precipitation Wind Pressure Humidity
    00:00 +7°C° 0 mm 3 mps 754 mmHg 84%
    01:00 +7°C° 0.3 mm 3 mps 753 mmHg 86%
    02:00 +7°C° 0.3 mm 3 mps 753 mmHg 88%
    03:00 +7°C° 0.3 mm 3 mps 753 mmHg 90%
    04:00 +7°C° 0.6 mm 3 mps 754 mmHg 91%
    05:00 +5°C° 0.6 mm 3 mps 754 mmHg 93%
    06:00 +6°C° 0.6 mm 2 mps 754 mmHg 95%
    07:00 +7°C° 0.1 mm 3 mps 754 mmHg 92%
    08:00 +6°C° 0.1 mm 4 mps 755 mmHg 89%
    09:00 +7°C° 0.1 mm 4 mps 755 mmHg 85%
    10:00 +7°C° 0 mm 4 mps 756 mmHg 83%
    11:00 +7°C° 0 mm 4 mps 756 mmHg 80%
    12:00 +7°C° 0 mm 4 mps 756 mmHg 78%
    13:00 +8°C° 0 mm 4 mps 756 mmHg 73%
    14:00 +8°C° 0 mm 4 mps 756 mmHg 69%
    15:00 +10°C° 0 mm 4 mps 756 mmHg 65%
    16:00 +8°C° 0 mm 3 mps 756 mmHg 71%
    17:00 +7°C° 0 mm 3 mps 756 mmHg 77%
    18:00 +6°C° 0 mm 2 mps 757 mmHg 82%
    19:00 +5°C° 0 mm 2 mps 757 mmHg 84%
    20:00 +5°C° 0 mm 2 mps 757 mmHg 85%
    21:00 +5°C° 0 mm 2 mps 758 mmHg 86%
    22:00 +4°C° 0 mm 2 mps 758 mmHg 87%
    23:00 +4°C° 0 mm 2 mps 758 mmHg 87%

    20 February, Wednesday

    Time Temperature Precipitation Wind Pressure Humidity
    00:00 +4°C° 0 mm 2 mps 758 mmHg 87%
    01:00 +4°C° 0 mm 2 mps 758 mmHg 87%
    02:00 +2°C° 0 mm 3 mps 757 mmHg 87%
    03:00 +2°C° 0 mm 3 mps 757 mmHg 87%
    04:00 +2°C° 0 mm 3 mps 757 mmHg 87%
    05:00 +3°C° 0 mm 3 mps 757 mmHg 87%
    06:00 +3°C° 0 mm 3 mps 758 mmHg 87%
    07:00 +4°C° 0 mm 3 mps 758 mmHg 86%
    08:00 +5°C° 0 mm 4 mps 758 mmHg 84%
    09:00 +6°C° 0 mm 4 mps 758 mmHg 82%
    10:00 +7°C° 0 mm 4 mps 758 mmHg 77%
    11:00 +8°C° 0 mm 4 mps 758 mmHg 71%
    12:00 +10°C° 0 mm 5 mps 758 mmHg 65%
    13:00 +10°C° 0 mm 5 mps 758 mmHg 65%
    14:00 +11°C° 0 mm 4 mps 758 mmHg 65%
    15:00 +11°C° 0 mm 4 mps 757 mmHg 65%
    16:00 +10°C° 0 mm 4 mps 758 mmHg 71%
    17:00 +9°C° 0 mm 3 mps 758 mmHg 78%
    18:00 +8°C° 0 mm 3 mps 758 mmHg 84%
    19:00 +7°C° 0 mm 3 mps 758 mmHg 86%
    20:00 +7°C° 0 mm 3 mps 758 mmHg 88%
    21:00 +7°C° 0 mm 3 mps 759 mmHg 90%
    22:00 +7°C° 0 mm 3 mps 759 mmHg 90%
    23:00 +5°C° 0 mm 3 mps 759 mmHg 91%

    21 February, Thursday

    Time Temperature Precipitation Wind Pressure Humidity
    00:00 +5°C° 0 mm 3 mps 759 mmHg 91%
    01:00 +5°C° 0 mm 3 mps 759 mmHg 92%
    02:00 +5°C° 0 mm 3 mps 759 mmHg 92%
    03:00 +4°C° 0 mm 3 mps 759 mmHg 93%
    04:00 +4°C° 0 mm 3 mps 760 mmHg 93%
    05:00 +5°C° 0 mm 3 mps 760 mmHg 93%
    06:00 +5°C° 0 mm 3 mps 760 mmHg 92%
    07:00 +5°C° 0 mm 3 mps 760 mmHg 91%
    08:00 +5°C° 0 mm 3 mps 761 mmHg 90%
    09:00 +7°C° 0 mm 3 mps 761 mmHg 90%
    10:00 +9°C° 0 mm 3 mps 761 mmHg 85%
    11:00 +10°C° 0 mm 3 mps 761 mmHg 81%
    12:00 +12°C° 0 mm 3 mps 761 mmHg 76%
    13:00 +12°C° 0 mm 3 mps 761 mmHg 76%
    14:00 +12°C° 0 mm 3 mps 761 mmHg 75%
    15:00 +14°C° 0 mm 2 mps 761 mmHg 75%
    16:00 +13°C° 0 mm 2 mps 762 mmHg 80%
    17:00 +12°C° 0 mm 1 mps 762 mmHg 84%
    18:00 +11°C° 0 mm 1 mps 762 mmHg 89%
    19:00 +10°C° 0 mm 1 mps 762 mmHg 90%
    20:00 +10°C° 0 mm 1 mps 763 mmHg 91%
    21:00 +10°C° 0 mm 1 mps 763 mmHg 92%
    22:00 +9°C° 0 mm 1 mps 763 mmHg 92%
    23:00 +9°C° 0 mm 1 mps 763 mmHg 93%

    22 February, Friday

    Time Temperature Precipitation Wind Pressure Humidity
    00:00 +8°C° 0 mm 1 mps 764 mmHg 93%
    01:00 +8°C° 0 mm 1 mps 764 mmHg 93%
    02:00 +8°C° 0 mm 1 mps 764 mmHg 93%
    03:00 +8°C° 0 mm 1 mps 764 mmHg 93%
    04:00 +8°C° 0 mm 1 mps 764 mmHg 93%
    05:00 +8°C° 0 mm 1 mps 764 mmHg 93%
    06:00 +7°C° 0 mm 1 mps 764 mmHg 92%
    07:00 +9°C° 0 mm 1 mps 765 mmHg 89%
    08:00 +10°C° 0 mm 1 mps 765 mmHg 85%
    09:00 +10°C° 0 mm 0 mps 766 mmHg 81%
    10:00 +13°C° 0 mm 1 mps 766 mmHg 77%
    11:00 +14°C° 0 mm 1 mps 766 mmHg 72%
    12:00 +15°C° 0 mm 1 mps 766 mmHg 68%
    13:00 +16°C° 0 mm 2 mps 765 mmHg 68%
    14:00 +16°C° 0 mm 2 mps 765 mmHg 69%
    15:00 +16°C° 0 mm 2 mps 765 mmHg 69%
    16:00 +14°C° 0 mm 2 mps 765 mmHg 75%
    17:00 +13°C° 0 mm 2 mps 765 mmHg 81%
    18:00 +10°C° 0 mm 2 mps 765 mmHg 88%
    19:00 +10°C° 0 mm 2 mps 765 mmHg 88%
    20:00 +9°C° 0 mm 2 mps 765 mmHg 89%
    21:00 +9°C° 0 mm 2 mps 766 mmHg 90%
    22:00 +8°C° 0 mm 2 mps 766 mmHg 90%
    23:00 +8°C° 0 mm 2 mps 766 mmHg 91%
    Show more